Volver al catálogo

STARLINK-35081

ActivoComunicacionesVLEO
NORAD 66148·PAYLOAD·🇺🇸 United States

Lanzado Oct 25, 2025 desde Cape Canaveral Space Force Station

Loading…

Próximos Pases (próximas 24 horas)

TLE

ActualizadoSource: CelesTrak SupGP

Época: Sep 15, 2026, 03:20 UTC

1 66148C 25240C   26258.13937500 -.00026032  00000+0 -76908-3 0  2584
2 66148  53.1576 258.7615 0001212  88.1918 193.5475 15.34406051    13

Sigue STARLINK-35081 en tiempo real con AllMySat

Download on the App Store